COSMOS 2522 (752)

Last updated on Jan. 23, 2021, 7:31 a.m. UTC

1 42939U 17055A   21022.48059381  .00000047  00000-0  00000-0 0  9991
2 42939  64.2726 259.4793 0006244 255.0076 245.8376  2.13102025 25969
UTC
Height (km)
Latitude
Longitude
Inclination
Orbital Period
UTC large
Height (km)
Speed (km/s)
/
Latitude / Longitude
Inclination (degrees)
Orbital Period (minutes)
Azimuth
Elevation
Range (km)
Doppler Factor
iOS Compass Heading
iOS Angle

Next 30 passes for location: Hong Kong

Rise time Rise Azimuth (degrees) Set time Set Azimuth (degrees) Duration Max altitude (degrees)

No matching passes for this satellites